This is the latest recevied weather packets stored in our database for station/object W9ESR. If no packets are shown the sender has not sent any weather packets the latest 1 day(s).
| Time | Temp. | Humidity | Pressure | Rain* | Wind** | Luminosity | Snow |
|---|---|---|---|---|---|---|---|
| 1836274784 | 15.56° C | 99% | - | 12.7 mm | 0 m/s | - | - |
| 1836274482 | 15.56° C | 99% | - | 6.1 mm | 0.89 m/s, 304° | - | - |
| 1836274336 | 15.56° C | 99% | - | 4.83 mm | 0 m/s | - | - |
| 1836274181 | 15.56° C | 99% | - | 3.05 mm | 0.89 m/s, 291° | - | - |
| 1836273881 | 15.56° C | 99% | - | 3.05 mm | 0.45 m/s, 299° | - | - |
| 1778042360 | 9.44° C | 42% | - | 0 mm | 1.79 m/s, 355° | - | - |
| 1778042057 | 9.44° C | 43% | - | 0 mm | 1.79 m/s, 342° | - | - |
| 1778041755 | 9.44° C | 43% | - | 0 mm | 1.34 m/s, 352° | - | - |
| 1778041454 | 9.44° C | 42% | - | 0 mm | 1.34 m/s, 350° | - | - |
| 1778041152 | 9.44° C | 42% | - | 0 mm | 1.34 m/s, 354° | - | - |
| 1778040849 | 9.44° C | 42% | - | 0 mm | 1.34 m/s, 2° | - | - |
| 1778040546 | 9.44° C | 41% | - | 0 mm | 1.79 m/s, 3° | - | - |
| 1778040244 | 9.44° C | 41% | - | 0 mm | 1.79 m/s, 1° | - | - |
| 1778039939 | 9.44° C | 42% | - | 0 mm | 1.34 m/s, 348° | - | - |
| 1778039637 | 9.44° C | 43% | - | 0 mm | 1.34 m/s, 7° | - | - |
| 1778039334 | 9.44° C | 42% | - | 0 mm | 1.34 m/s, 320° | - | - |
| 1778039031 | 9.44° C | 42% | - | 0 mm | 1.79 m/s, 7° | - | - |
| 1778038728 | 10° C | 42% | - | 0 mm | 1.34 m/s, 5° | - | - |
| 1778038425 | 10° C | 42% | - | 0 mm | 1.79 m/s, 340° | - | - |
| 1778038122 | 10° C | 41% | - | 0 mm | 1.79 m/s, 5° | - | - |
| 1778037819 | 10° C | 41% | - | 0 mm | 2.24 m/s, 9° | - | - |
| 1778037516 | 10° C | 41% | - | 0 mm | 1.79 m/s, 16° | - | - |
| 1778037213 | 10° C | 41% | - | 0 mm | 1.79 m/s, 16° | - | - |
| 1778036911 | 10° C | 41% | - | 0 mm | 2.24 m/s, 7° | - | - |
| 1778036609 | 10.56° C | 41% | - | 0 mm | 1.79 m/s, 2° | - | - |
* Rain latest hour (hover to see other rain measurements)
** Current wind speed in m/s (hover to see current wind gust speed)